User: anonymous   Login
Location: Irma
(52.9170°N, 111.2330°W)
Time: 16:01:11
(UTC-07:00)
Language:

Cosmos 1633 Rocket - Orbit

View from above orbital plane
View from above orbital plane
View from above satellite
View from above satellite

Ground track
Ground track

The orbit data is extracted from the following two-line orbital elements,

1 15593U 85020B   15058.86926046  .00000411  00000-0  46577-4 0  9997
2 15593 082.5408 328.8633 0010362 299.2603 127.5169 14.83959871619730
Epoch (UTC): 27 February 2015 20:51:44
Eccentricity: 0.0010362
inclination: 82.5408°
perigee height: 609 km
apogee height: 624 km
right ascension of ascending node: 328.8633°
argument of perigee: 299.2603°
revolutions per day: 14.83959871
mean anomaly at epoch: 127.5169°
orbit number at epoch: 61973

The dashed part of the orbit path shows where the satellite is in the earth's shadow,  

DLR